Location: Bishopstone
(51.0167°N, 1.9000°W)
Time: 14:29:25
(UTC+00:00)

CZ-2C R/B - Pass Details

Date: 16 September 2019
Orbit: 785 x 870 km, 98.3° (Epoch: 21 October)

Event Time Altitude Azimuth Distance (km) Brightness Sun altitude
Rises 19:27:01 0° 30° (NNE) 3,427 5.7 -11.1°
Reaches altitude 10° 19:31:00 10° 58° (ENE) 2,501 4.8 -11.7°
Enters shadow 19:33:17 13° 83° (E) 2,318 4.4 -12.0°
